SAUDISAT 1A 1 26545U 00057A 12034.97768485 +.00000614 +00000-0 +96276-4 0 00679 2 26545 064.5561 033.0302 0034009 329.5726 030.3415 14.81351654613613 UNISAT 1 26547U 00057C 12034.90819720 +.00001235 +00000-0 +16558-3 0 00947 2 26547 064.5546 009.1511 0034430 339.3679 020.6052 14.83643067614106 SAUDISAT 1B 1 26549U 00057E 12034.67618566 +.00000528 +00000-0 +87623-4 0 01552 2 26549 064.5530 055.9759 0034170 337.8403 022.1223 14.80165500613129 MOZHAYETS 1 27560U 02054B 12034.89971105 +.00000354 +00000-0 +90117-4 0 01852 2 27560 097.9422 203.7296 0043756 093.4425 267.1784 14.55504357486615 SAUDISAT 1C 1 27607U 02058C 12034.88307774 +.00000569 +00000-0 +10678-3 0 06803 2 27607 064.5592 343.3940 0085077 274.7166 084.4214 14.72199581490194 UNISAT 2 1 27608U 02058D 12034.84755647 .00000373 00000-0 73936-4 0 6884 2 27608 064.5604 295.3386 0069133 266.4099 092.9088 14.75071126491198 SAUDISAT 2 1 28371U 04025F 12035.51067792 .00000160 00000-0 48762-4 0 5309 2 28371 097.9308 048.1666 0025047 302.5244 057.3523 14.53167958403111 UNISAT 3 1 28373U 04025H 12034.80323732 .00000334 00000-0 10735-3 0 1544 2 28373 098.0841 014.5380 0071660 052.6354 308.1339 14.43731183400861 SSETI-EXPRESS 1 28894U 05043E 12034.67611398 .00000231 00000-0 57382-4 0 2947 2 28894 097.9284 265.4141 0016717 214.3013 145.7108 14.60014322334123 SAUDISAT 3 1 31118U 07012B 12034.92613560 +.00000088 +00000-0 +23400-4 0 01302 2 31118 097.8915 096.7268 0016650 058.7797 301.5021 14.68214556257282